"Sample Date","Sample Time","Sensor Name","Sample Value","Units","Flow Rate","Sample Interval","Sample Volume","Laser Status","Number Channels","Micron Size 0","Counts/Channel 0","Micron Size 1","Counts/Channel 1","Micron Size 2","Counts/Channel 2","Micron Size 3","Counts/Channel 3","Micron Size 4","Counts/Channel 4","Micron Size 5","Counts/Channel 5","Micron Size 6","Counts/Channel 6","Micron Size 7","Counts/Channel 7","Micron Size 8","Counts/Channel 8","Micron Size 9","Counts/Channel 9","Micron Size 10","Counts/Channel 10","Micron Size 11","Counts/Channel 11","Micron Size 12","Counts/Channel 12","Micron Size 13","Counts/Channel 13","Micron Size 14","Counts/Channel 14","Micron Size 15","Counts/Channel 15","Micron Size 16","Counts/Channel 16","Micron Size 17","Counts/Channel 17","Micron Size 18","Counts/Channel 18","Micron Size 19","Counts/Channel 19","Micron Size 20","Counts/Channel 20","Micron Size 21","Counts/Channel 21","Micron Size 22","Counts/Channel 22","Micron Size 23","Counts/Channel 23","Micron Size 24","Counts/Channel 24","Micron Size 25","Counts/Channel 25","Micron Size 26","Counts/Channel 26","Micron Size 27","Counts/Channel 27","Micron Size 28","Counts/Channel 28","Micron Size 29","Counts/Channel 29","Micron Size 30","Counts/Channel 30","Micron Size 31","Counts/Channel 31"
"07/01/06","15:00:03","AMMA06",56470.000,"cc",28325.385,6.00,2832.539,1,6,0.100,31371.000,0.200,20236.000,0.300,3265.000,0.500,956.000,1.000,642.000,5.000,0
"07/01/06","15:00:09","AMMA06",56060.000,"cc",28291.553,6.00,2829.156,1,6,0.100,31335.000,0.200,20048.000,0.300,3151.000,0.500,938.000,1.000,587.000,5.000,1.000
"07/01/06","15:00:15","AMMA06",56467.000,"cc",28316.787,6.00,2831.679,1,6,0.100,31277.000,0.200,20343.000,0.300,3263.000,0.500,958.000,1.000,626.000,5.000,0
"07/01/06","15:00:21","AMMA06",56255.000,"cc",28316.287,6.00,2831.629,1,6,0.100,31125.000,0.200,20340.000,0.300,3258.000,0.500,908.000,1.000,623.000,5.000,1.000
"07/01/06","15:00:27","AMMA06",56290.000,"cc",28313.758,6.00,2831.376,1,6,0.100,31554.000,0.200,20046.000,0.300,3070.000,0.500,960.000,1.000,659.000,5.000,1.000
"07/01/06","15:00:33","AMMA06",56333.000,"cc",28343.324,6.00,2834.333,1,6,0.100,31435.000,0.200,20263.000,0.300,3048.000,0.500,971.000,1.000,616.000,5.000,0
"07/01/06","15:00:39","AMMA06",56065.000,"cc",28312.877,6.00,2831.288,1,6,0.100,31091.000,0.200,20220.000,0.300,3166.000,0.500,952.000,1.000,636.000,5.000,0
"07/01/06","15:00:45","AMMA06",56417.000,"cc",28325.680,6.00,2832.568,1,6,0.100,31423.000,0.200,20268.000,0.300,3157.000,0.500,922.000,1.000,647.000,5.000,0
"07/01/06","15:00:51","AMMA06",56345.000,"cc",28328.764,6.00,2832.877,1,6,0.100,31391.000,0.200,20445.000,0.300,3032.000,0.500,891.000,1.000,586.000,5.000,0
"07/01/06","15:00:57","AMMA06",56132.000,"cc",28287.838,6.00,2828.784,1,6,0.100,31378.000,0.200,20023.000,0.300,3186.000,0.500,883.000,1.000,660.000,5.000,2.000
"07/01/06","15:01:03","AMMA06",56194.000,"cc",28331.869,6.00,2833.187,1,6,0.100,31040.000,0.200,20433.000,0.300,3147.000,0.500,936.000,1.000,637.000,5.000,1.000
"07/01/06","15:01:09","AMMA06",56434.000,"cc",28356.188,6.00,2835.619,1,6,0.100,31295.000,0.200,20249.000,0.300,3290.000,0.500,948.000,1.000,650.000,5.000,2.000
"07/01/06","15:01:15","AMMA06",56351.000,"cc",28283.604,6.00,2828.361,1,6,0.100,31354.000,0.200,20336.000,0.300,3167.000,0.500,893.000,1.000,601.000,5.000,0
"07/01/06","15:01:21","AMMA06",56227.000,"cc",28339.229,6.00,2833.923,1,6,0.100,31272.000,0.200,20257.000,0.300,3112.000,0.500,945.000,1.000,641.000,5.000,0
"07/01/06","15:01:27","AMMA06",56505.000,"cc",28297.305,6.00,2829.731,1,6,0.100,31384.000,0.200,20337.000,0.300,3208.000,0.500,928.000,1.000,648.000,5.000,0
"07/01/06","15:01:33","AMMA06",56628.000,"cc",28335.106,6.00,2833.511,1,6,0.100,31543.000,0.200,20322.000,0.300,3205.000,0.500,955.000,1.000,603.000,5.000,0
"07/01/06","15:01:39","AMMA06",56255.000,"cc",28277.311,6.00,2827.731,1,6,0.100,31109.000,0.200,20449.000,0.300,3179.000,0.500,931.000,1.000,586.000,5.000,1.000
"07/01/06","15:01:45","AMMA06",56485.000,"cc",28357.320,6.00,2835.732,1,6,0.100,31325.000,0.200,20477.000,0.300,3184.000,0.500,875.000,1.000,623.000,5.000,1.000
"07/01/06","15:01:51","AMMA06",56456.000,"cc",28341.361,6.00,2834.136,1,6,0.100,31158.000,0.200,20594.000,0.300,3181.000,0.500,895.000,1.000,628.000,5.000,0
"07/01/06","15:01:57","AMMA06",56751.000,"cc",28321.305,6.00,2832.131,1,6,0.100,31230.000,0.200,20758.000,0.300,3251.000,0.500,933.000,1.000,579.000,5.000,0
"07/01/06","15:02:03","AMMA06",56293.000,"cc",28309.781,6.00,2830.978,1,6,0.100,31021.000,0.200,20546.000,0.300,3248.000,0.500,905.000,1.000,573.000,5.000,0
"07/01/06","15:02:09","AMMA06",56444.000,"cc",28353.672,6.00,2835.367,1,6,0.100,30976.000,0.200,20580.000,0.300,3258.000,0.500,964.000,1.000,665.000,5.000,1.000
"07/01/06","15:02:15","AMMA06",56595.000,"cc",28318.531,6.00,2831.853,1,6,0.100,30966.000,0.200,20826.000,0.300,3234.000,0.500,916.000,1.000,652.000,5.000,1.000
"07/01/06","15:02:21","AMMA06",56482.000,"cc",28279.000,6.00,2827.900,1,6,0.100,30753.000,0.200,20818.000,0.300,3357.000,0.500,933.000,1.000,621.000,5.000,0
"07/01/06","15:02:27","AMMA06",56627.000,"cc",28328.988,6.00,2832.899,1,6,0.100,30996.000,0.200,20627.000,0.300,3333.000,0.500,978.000,1.000,693.000,5.000,0
"07/01/06","15:02:33","AMMA06",56372.000,"cc",28266.637,6.00,2826.664,1,6,0.100,30671.000,0.200,20863.000,0.300,3323.000,0.500,898.000,1.000,617.000,5.000,0
"07/01/06","15:02:39","AMMA06",56755.000,"cc",28306.033,6.00,2830.604,1,6,0.100,31142.000,0.200,20724.000,0.300,3299.000,0.500,956.000,1.000,634.000,5.000,0
"07/01/06","15:02:45","AMMA06",56466.000,"cc",28336.440,6.00,2833.644,1,6,0.100,30734.000,0.200,20713.000,0.300,3430.000,0.500,913.000,1.000,676.000,5.000,0
"07/01/06","15:02:51","AMMA06",56766.000,"cc",28309.930,6.00,2830.993,1,6,0.100,30981.000,0.200,20919.000,0.300,3292.000,0.500,948.000,1.000,626.000,5.000,0
"07/01/06","15:02:57","AMMA06",56610.000,"cc",28312.498,6.00,2831.250,1,6,0.100,30982.000,0.200,20803.000,0.300,3287.000,0.500,895.000,1.000,642.000,5.000,1.000
"07/01/06","15:03:03","AMMA06",57298.000,"cc",28308.500,6.00,2830.850,1,6,0.100,31494.000,0.200,20866.000,0.300,3343.000,0.500,958.000,1.000,637.000,5.000,0
"07/01/06","15:03:09","AMMA06",56710.000,"cc",28394.598,6.00,2839.460,1,6,0.100,30874.000,0.200,20872.000,0.300,3352.000,0.500,931.000,1.000,681.000,5.000,0
"07/01/06","15:03:15","AMMA06",57131.000,"cc",28318.865,6.00,2831.887,1,6,0.100,31446.000,0.200,20795.000,0.300,3331.000,0.500,933.000,1.000,626.000,5.000,0
"07/01/06","15:03:21","AMMA06",57386.000,"cc",28344.565,6.00,2834.457,1,6,0.100,31436.000,0.200,21008.000,0.300,3325.000,0.500,989.000,1.000,628.000,5.000,0
"07/01/06","15:03:27","AMMA06",56885.000,"cc",28295.512,6.00,2829.551,1,6,0.100,31170.000,0.200,20920.000,0.300,3252.000,0.500,943.000,1.000,600.000,5.000,0
"07/01/06","15:03:33","AMMA06",56991.000,"cc",28292.113,6.00,2829.211,1,6,0.100,31483.000,0.200,20710.000,0.300,3247.000,0.500,878.000,1.000,673.000,5.000,0
"07/01/06","15:03:39","AMMA06",56885.000,"cc",28274.344,6.00,2827.435,1,6,0.100,31626.000,0.200,20641.000,0.300,3093.000,0.500,891.000,1.000,633.000,5.000,1.000
"07/01/06","15:03:45","AMMA06",56952.000,"cc",28362.113,6.00,2836.211,1,6,0.100,31166.000,0.200,20888.000,0.300,3321.000,0.500,968.000,1.000,608.000,5.000,1.000
"07/01/06","15:03:51","AMMA06",57374.000,"cc",28333.934,6.00,2833.394,1,6,0.100,31563.000,0.200,20947.000,0.300,3249.000,0.500,943.000,1.000,672.000,5.000,0
"07/01/06","15:03:57","AMMA06",57016.000,"cc",28314.861,6.00,2831.486,1,6,0.100,31363.000,0.200,20775.000,0.300,3283.000,0.500,935.000,1.000,660.000,5.000,0
"07/01/06","15:04:03","AMMA06",57113.000,"cc",28305.770,6.00,2830.577,1,6,0.100,31266.000,0.200,21045.000,0.300,3253.000,0.500,895.000,1.000,653.000,5.000,1.000
"07/01/06","15:04:09","AMMA06",57393.000,"cc",28298.764,6.00,2829.877,1,6,0.100,31140.000,0.200,21272.000,0.300,3376.000,0.500,975.000,1.000,630.000,5.000,0
"07/01/06","15:04:15","AMMA06",57347.000,"cc",28361.041,6.00,2836.104,1,6,0.100,31293.000,0.200,21204.000,0.300,3264.000,0.500,939.000,1.000,647.000,5.000,0
"07/01/06","15:04:21","AMMA06",57984.000,"cc",28302.027,6.00,2830.203,1,6,0.100,31441.000,0.200,21582.000,0.300,3326.000,0.500,992.000,1.000,643.000,5.000,0
"07/01/06","15:04:27","AMMA06",58058.000,"cc",28304.916,6.00,2830.492,1,6,0.100,31804.000,0.200,21259.000,0.300,3356.000,0.500,1000.000,1.000,639.000,5.000,0
"07/01/06","15:04:33","AMMA06",57700.000,"cc",28320.147,6.00,2832.015,1,6,0.100,31605.000,0.200,21210.000,0.300,3321.000,0.500,952.000,1.000,611.000,5.000,1.000
"07/01/06","15:04:39","AMMA06",57442.000,"cc",28299.723,6.00,2829.972,1,6,0.100,31359.000,0.200,21175.000,0.300,3258.000,0.500,1001.000,1.000,648.000,5.000,1.000
"07/01/06","15:04:45","AMMA06",57143.000,"cc",28335.895,6.00,2833.590,1,6,0.100,31269.000,0.200,20905.000,0.300,3325.000,0.500,976.000,1.000,667.000,5.000,1.000
"07/01/06","15:04:51","AMMA06",57809.000,"cc",28323.588,6.00,2832.359,1,6,0.100,31727.000,0.200,21185.000,0.300,3365.000,0.500,921.000,1.000,611.000,5.000,0
"07/01/06","15:04:57","AMMA06",57787.000,"cc",28283.291,6.00,2828.329,1,6,0.100,31860.000,0.200,21032.000,0.300,3293.000,0.500,943.000,1.000,659.000,5.000,0
"07/01/06","15:05:03","AMMA06",58091.000,"cc",28323.656,6.00,2832.366,1,6,0.100,31704.000,0.200,21469.000,0.300,3300.000,0.500,958.000,1.000,659.000,5.000,1.000
"07/01/06","15:05:09","AMMA06",57561.000,"cc",28278.973,6.00,2827.898,1,6,0.100,31243.000,0.200,21372.000,0.300,3338.000,0.500,926.000,1.000,682.000,5.000,0
"07/01/06","15:05:15","AMMA06",58194.000,"cc",28298.555,6.00,2829.856,1,6,0.100,32059.000,0.200,21253.000,0.300,3264.000,0.500,988.000,1.000,629.000,5.000,1.000
"07/01/06","15:05:21","AMMA06",57720.000,"cc",28340.986,6.00,2834.099,1,6,0.100,31585.000,0.200,21354.000,0.300,3196.000,0.500,931.000,1.000,653.000,5.000,1.000
"07/01/06","15:05:27","AMMA06",57724.000,"cc",28314.793,6.00,2831.480,1,6,0.100,31838.000,0.200,21249.000,0.300,3089.000,0.500,958.000,1.000,590.000,5.000,0
"07/01/06","15:05:33","AMMA06",57583.000,"cc",28334.691,6.00,2833.469,1,6,0.100,31527.000,0.200,21316.000,0.300,3170.000,0.500,906.000,1.000,664.000,5.000,0
"07/01/06","15:05:39","AMMA06",57571.000,"cc",28336.904,6.00,2833.691,1,6,0.100,31945.000,0.200,20811.000,0.300,3248.000,0.500,910.000,1.000,657.000,5.000,0
"07/01/06","15:05:45","AMMA06",57302.000,"cc",28297.680,6.00,2829.768,1,6,0.100,31466.000,0.200,20980.000,0.300,3262.000,0.500,931.000,1.000,663.000,5.000,0
"07/01/06","15:05:51","AMMA06",57865.000,"cc",28315.467,6.00,2831.547,1,6,0.100,31818.000,0.200,21327.000,0.300,3172.000,0.500,939.000,1.000,608.000,5.000,1.000
"07/01/06","15:05:57","AMMA06",57966.000,"cc",28324.305,6.00,2832.431,1,6,0.100,32068.000,0.200,21144.000,0.300,3188.000,0.500,922.000,1.000,644.000,5.000,0
"07/01/06","15:06:03","AMMA06",58011.000,"cc",28377.586,6.00,2837.759,1,6,0.100,31905.000,0.200,21373.000,0.300,3208.000,0.500,932.000,1.000,593.000,5.000,0
"07/01/06","15:06:09","AMMA06",58185.000,"cc",28248.035,6.00,2824.804,1,6,0.100,32029.000,0.200,21383.000,0.300,3190.000,0.500,943.000,1.000,640.000,5.000,0
"07/01/06","15:06:15","AMMA06",57675.000,"cc",28307.695,6.00,2830.770,1,6,0.100,31511.000,0.200,21437.000,0.300,3161.000,0.500,925.000,1.000,640.000,5.000,1.000
"07/01/06","15:06:21","AMMA06",57893.000,"cc",28301.133,6.00,2830.114,1,6,0.100,31729.000,0.200,21373.000,0.300,3182.000,0.500,972.000,1.000,636.000,5.000,1.000
"07/01/06","15:06:27","AMMA06",58063.000,"cc",28330.943,6.00,2833.095,1,6,0.100,32046.000,0.200,21233.000,0.300,3242.000,0.500,932.000,1.000,610.000,5.000,0
"07/01/06","15:06:33","AMMA06",58085.000,"cc",28299.850,6.00,2829.985,1,6,0.100,31653.000,0.200,21533.000,0.300,3279.000,0.500,1000.000,1.000,620.000,5.000,0
"07/01/06","15:06:39","AMMA06",57593.000,"cc",28345.533,6.00,2834.554,1,6,0.100,31368.000,0.200,21487.000,0.300,3130.000,0.500,992.000,1.000,614.000,5.000,2.000
"07/01/06","15:06:45","AMMA06",58253.000,"cc",28360.199,6.00,2836.020,1,6,0.100,31691.000,0.200,21651.000,0.300,3371.000,0.500,925.000,1.000,614.000,5.000,1.000
"07/01/06","15:06:51","AMMA06",58235.000,"cc",28288.979,6.00,2828.898,1,6,0.100,31742.000,0.200,21409.000,0.300,3397.000,0.500,1026.000,1.000,660.000,5.000,1.000
"07/01/06","15:06:57","AMMA06",58464.000,"cc",28270.488,6.00,2827.049,1,6,0.100,31974.000,0.200,21576.000,0.300,3299.000,0.500,975.000,1.000,640.000,5.000,0
"07/01/06","15:07:03","AMMA06",58082.000,"cc",28321.022,6.00,2832.102,1,6,0.100,31757.000,0.200,21448.000,0.300,3305.000,0.500,961.000,1.000,611.000,5.000,0
"07/01/06","15:07:09","AMMA06",58397.000,"cc",28309.131,6.00,2830.913,1,6,0.100,31870.000,0.200,21673.000,0.300,3227.000,0.500,966.000,1.000,659.000,5.000,2.000
"07/01/06","15:07:15","AMMA06",57776.000,"cc",28287.236,6.00,2828.724,1,6,0.100,31339.000,0.200,21567.000,0.300,3166.000,0.500,1035.000,1.000,669.000,5.000,0
"07/01/06","15:07:21","AMMA06",57992.000,"cc",28348.402,6.00,2834.840,1,6,0.100,31658.000,0.200,21389.000,0.300,3319.000,0.500,971.000,1.000,655.000,5.000,0
"07/01/06","15:07:27","AMMA06",58160.000,"cc",28364.197,6.00,2836.420,1,6,0.100,31833.000,0.200,21571.000,0.300,3228.000,0.500,907.000,1.000,620.000,5.000,1.000
"07/01/06","15:07:33","AMMA06",58145.000,"cc",28323.213,6.00,2832.322,1,6,0.100,31969.000,0.200,21387.000,0.300,3225.000,0.500,956.000,1.000,607.000,5.000,1.000
"07/01/06","15:07:39","AMMA06",58339.000,"cc",28302.740,6.00,2830.274,1,6,0.100,31972.000,0.200,21557.000,0.300,3203.000,0.500,937.000,1.000,670.000,5.000,0
"07/01/06","15:07:45","AMMA06",57779.000,"cc",28324.867,6.00,2832.487,1,6,0.100,31679.000,0.200,21260.000,0.300,3196.000,0.500,977.000,1.000,666.000,5.000,1.000
"07/01/06","15:07:51","AMMA06",58198.000,"cc",28294.303,6.00,2829.430,1,6,0.100,31874.000,0.200,21477.000,0.300,3235.000,0.500,992.000,1.000,620.000,5.000,0
"07/01/06","15:07:57","AMMA06",58589.000,"cc",28309.609,6.00,2830.961,1,6,0.100,32133.000,0.200,21529.000,0.300,3327.000,0.500,939.000,1.000,661.000,5.000,0
"07/01/06","15:08:03","AMMA06",58204.000,"cc",28329.315,6.00,2832.932,1,6,0.100,31748.000,0.200,21674.000,0.300,3279.000,0.500,876.000,1.000,627.000,5.000,0
"07/01/06","15:08:09","AMMA06",58010.000,"cc",28327.389,6.00,2832.739,1,6,0.100,31735.000,0.200,21463.000,0.300,3185.000,0.500,971.000,1.000,656.000,5.000,0
"07/01/06","15:08:15","AMMA06",58276.000,"cc",28326.315,6.00,2832.632,1,6,0.100,31761.000,0.200,21746.000,0.300,3215.000,0.500,949.000,1.000,604.000,5.000,1.000
"07/01/06","15:08:21","AMMA06",58294.000,"cc",28292.398,6.00,2829.240,1,6,0.100,31895.000,0.200,21567.000,0.300,3278.000,0.500,926.000,1.000,628.000,5.000,0
"07/01/06","15:08:27","AMMA06",58438.000,"cc",28392.744,6.00,2839.275,1,6,0.100,31893.000,0.200,21585.000,0.300,3272.000,0.500,1043.000,1.000,644.000,5.000,1.000
"07/01/06","15:08:33","AMMA06",58471.000,"cc",28293.856,6.00,2829.386,1,6,0.100,32091.000,0.200,21516.000,0.300,3295.000,0.500,940.000,1.000,629.000,5.000,0
"07/01/06","15:08:39","AMMA06",58629.000,"cc",28253.236,6.00,2825.324,1,6,0.100,32077.000,0.200,21493.000,0.300,3396.000,0.500,994.000,1.000,668.000,5.000,1.000
"07/01/06","15:08:45","AMMA06",58492.000,"cc",28305.004,6.00,2830.501,1,6,0.100,32212.000,0.200,21430.000,0.300,3306.000,0.500,932.000,1.000,612.000,5.000,0
"07/01/06","15:08:51","AMMA06",58445.000,"cc",28347.232,6.00,2834.723,1,6,0.100,32053.000,0.200,21413.000,0.300,3358.000,0.500,984.000,1.000,637.000,5.000,0
"07/01/06","15:08:57","AMMA06",58238.000,"cc",28352.836,6.00,2835.284,1,6,0.100,31880.000,0.200,21556.000,0.300,3206.000,0.500,946.000,1.000,650.000,5.000,0
"07/01/06","15:09:03","AMMA06",58012.000,"cc",28316.166,6.00,2831.617,1,6,0.100,32086.000,0.200,21236.000,0.300,3121.000,0.500,928.000,1.000,640.000,5.000,1.000
"07/01/06","15:09:09","AMMA06",57982.000,"cc",28282.652,6.00,2828.265,1,6,0.100,31958.000,0.200,21335.000,0.300,3054.000,0.500,960.000,1.000,675.000,5.000,0
"07/01/06","15:09:15","AMMA06",57943.000,"cc",28323.766,6.00,2832.377,1,6,0.100,31811.000,0.200,21401.000,0.300,3101.000,0.500,987.000,1.000,642.000,5.000,1.000
"07/01/06","15:09:21","AMMA06",58106.000,"cc",28316.719,6.00,2831.672,1,6,0.100,31979.000,0.200,21323.000,0.300,3275.000,0.500,922.000,1.000,606.000,5.000,1.000
"07/01/06","15:09:27","AMMA06",58240.000,"cc",28330.240,6.00,2833.024,1,6,0.100,32264.000,0.200,21256.000,0.300,3124.000,0.500,994.000,1.000,602.000,5.000,0
"07/01/06","15:09:33","AMMA06",58650.000,"cc",28324.018,6.00,2832.402,1,6,0.100,32189.000,0.200,21689.000,0.300,3203.000,0.500,936.000,1.000,633.000,5.000,0
"07/01/06","15:09:39","AMMA06",58449.000,"cc",28275.406,6.00,2827.541,1,6,0.100,32094.000,0.200,21556.000,0.300,3181.000,0.500,965.000,1.000,653.000,5.000,0
"07/01/06","15:09:45","AMMA06",58423.000,"cc",28317.955,6.00,2831.796,1,6,0.100,32137.000,0.200,21354.000,0.300,3280.000,0.500,1045.000,1.000,606.000,5.000,1.000
"07/01/06","15:09:51","AMMA06",58439.000,"cc",28334.332,6.00,2833.433,1,6,0.100,32056.000,0.200,21485.000,0.300,3224.000,0.500,1004.000,1.000,669.000,5.000,1.000
"07/01/06","15:09:57","AMMA06",58023.000,"cc",28329.955,6.00,2832.996,1,6,0.100,32039.000,0.200,21216.000,0.300,3166.000,0.500,981.000,1.000,621.000,5.000,0
"07/01/06","15:10:03","AMMA06",57903.000,"cc",28356.094,6.00,2835.610,1,6,0.100,31693.000,0.200,21430.000,0.300,3091.000,0.500,1046.000,1.000,643.000,5.000,0
"07/01/06","15:10:09","AMMA06",58534.000,"cc",28251.961,6.00,2825.196,1,6,0.100,32082.000,0.200,21698.000,0.300,3179.000,0.500,936.000,1.000,639.000,5.000,0
"07/01/06","15:10:15","AMMA06",58694.000,"cc",28324.947,6.00,2832.495,1,6,0.100,32434.000,0.200,21327.000,0.300,3344.000,0.500,966.000,1.000,622.000,5.000,1.000
"07/01/06","15:10:21","AMMA06",58259.000,"cc",28356.010,6.00,2835.601,1,6,0.100,32000.000,0.200,21372.000,0.300,3313.000,0.500,969.000,1.000,605.000,5.000,0
"07/01/06","15:10:27","AMMA06",58111.000,"cc",28272.826,6.00,2827.283,1,6,0.100,31849.000,0.200,21457.000,0.300,3191.000,0.500,957.000,1.000,657.000,5.000,0
"07/01/06","15:10:33","AMMA06",58285.000,"cc",28312.682,6.00,2831.268,1,6,0.100,32144.000,0.200,21248.000,0.300,3255.000,0.500,1006.000,1.000,632.000,5.000,0
"07/01/06","15:10:39","AMMA06",58557.000,"cc",28335.398,6.00,2833.540,1,6,0.100,32091.000,0.200,21650.000,0.300,3212.000,0.500,997.000,1.000,607.000,5.000,0
"07/01/06","15:10:45","AMMA06",58833.000,"cc",28326.270,6.00,2832.627,1,6,0.100,32298.000,0.200,21622.000,0.300,3283.000,0.500,966.000,1.000,664.000,5.000,0
"07/01/06","15:10:51","AMMA06",58686.000,"cc",28308.106,6.00,2830.811,1,6,0.100,31794.000,0.200,22017.000,0.300,3243.000,0.500,984.000,1.000,648.000,5.000,0
"07/01/06","15:10:57","AMMA06",58002.000,"cc",28292.361,6.00,2829.236,1,6,0.100,31499.000,0.200,21704.000,0.300,3237.000,0.500,906.000,1.000,654.000,5.000,2.000
"07/01/06","15:11:03","AMMA06",58623.000,"cc",28331.426,6.00,2833.143,1,6,0.100,31725.000,0.200,21932.000,0.300,3428.000,0.500,898.000,1.000,640.000,5.000,0
"07/01/06","15:11:09","AMMA06",58456.000,"cc",28300.580,6.00,2830.058,1,6,0.100,31501.000,0.200,21904.000,0.300,3407.000,0.500,983.000,1.000,660.000,5.000,1.000
"07/01/06","15:11:15","AMMA06",58382.000,"cc",28325.711,6.00,2832.571,1,6,0.100,31550.000,0.200,21870.000,0.300,3321.000,0.500,954.000,1.000,686.000,5.000,1.000
"07/01/06","15:11:21","AMMA06",58513.000,"cc",28321.035,6.00,2832.104,1,6,0.100,31556.000,0.200,21924.000,0.300,3376.000,0.500,1024.000,1.000,632.000,5.000,1.000
"07/01/06","15:11:27","AMMA06",58678.000,"cc",28335.316,6.00,2833.532,1,6,0.100,31737.000,0.200,21820.000,0.300,3516.000,0.500,945.000,1.000,660.000,5.000,0
"07/01/06","15:11:33","AMMA06",58762.000,"cc",28329.791,6.00,2832.979,1,6,0.100,31622.000,0.200,22085.000,0.300,3397.000,0.500,993.000,1.000,665.000,5.000,0
"07/01/06","15:11:39","AMMA06",58408.000,"cc",28400.680,6.00,2840.068,1,6,0.100,31476.000,0.200,21933.000,0.300,3346.000,0.500,1007.000,1.000,646.000,5.000,0
"07/01/06","15:11:45","AMMA06",58158.000,"cc",28300.777,6.00,2830.078,1,6,0.100,30991.000,0.200,22069.000,0.300,3442.000,0.500,968.000,1.000,688.000,5.000,0
"07/01/06","15:11:51","AMMA06",58478.000,"cc",28279.293,6.00,2827.929,1,6,0.100,31321.000,0.200,22128.000,0.300,3423.000,0.500,979.000,1.000,627.000,5.000,0
"07/01/06","15:11:57","AMMA06",58851.000,"cc",28310.106,6.00,2831.011,1,6,0.100,31626.000,0.200,22133.000,0.300,3494.000,0.500,954.000,1.000,644.000,5.000,0
"07/01/06","15:12:03","AMMA06",58422.000,"cc",28373.475,6.00,2837.348,1,6,0.100,31326.000,0.200,21974.000,0.300,3448.000,0.500,971.000,1.000,703.000,5.000,0
"07/01/06","15:12:09","AMMA06",58787.000,"cc",28283.590,6.00,2828.359,1,6,0.100,31604.000,0.200,22199.000,0.300,3322.000,0.500,988.000,1.000,674.000,5.000,0
"07/01/06","15:12:15","AMMA06",59459.000,"cc",28325.338,6.00,2832.534,1,6,0.100,32187.000,0.200,22068.000,0.300,3538.000,0.500,989.000,1.000,676.000,5.000,1.000
"07/01/06","15:12:21","AMMA06",58200.000,"cc",28318.258,6.00,2831.826,1,6,0.100,31501.000,0.200,21835.000,0.300,3261.000,0.500,981.000,1.000,622.000,5.000,0
"07/01/06","15:12:27","AMMA06",58644.000,"cc",28303.924,6.00,2830.393,1,6,0.100,31687.000,0.200,21913.000,0.300,3362.000,0.500,991.000,1.000,691.000,5.000,0
"07/01/06","15:12:33","AMMA06",58725.000,"cc",28280.231,6.00,2828.023,1,6,0.100,31554.000,0.200,22152.000,0.300,3448.000,0.500,925.000,1.000,646.000,5.000,0
"07/01/06","15:12:39","AMMA06",58936.000,"cc",28303.481,6.00,2830.348,1,6,0.100,31706.000,0.200,22191.000,0.300,3390.000,0.500,987.000,1.000,662.000,5.000,0
"07/01/06","15:12:45","AMMA06",58041.000,"cc",28314.141,6.00,2831.414,1,6,0.100,31471.000,0.200,21717.000,0.300,3316.000,0.500,937.000,1.000,600.000,5.000,0
"07/01/06","15:12:51","AMMA06",59031.000,"cc",28374.932,6.00,2837.493,1,6,0.100,32119.000,0.200,21766.000,0.300,3463.000,0.500,991.000,1.000,692.000,5.000,0
"07/01/06","15:12:57","AMMA06",58999.000,"cc",28292.039,6.00,2829.204,1,6,0.100,31870.000,0.200,22032.000,0.300,3450.000,0.500,1003.000,1.000,643.000,5.000,1.000
"07/01/06","15:13:03","AMMA06",59134.000,"cc",28301.133,6.00,2830.114,1,6,0.100,32070.000,0.200,21959.000,0.300,3456.000,0.500,1021.000,1.000,628.000,5.000,0
"07/01/06","15:13:09","AMMA06",58722.000,"cc",28325.307,6.00,2832.531,1,6,0.100,31882.000,0.200,21923.000,0.300,3260.000,0.500,996.000,1.000,661.000,5.000,0
"07/01/06","15:13:15","AMMA06",58932.000,"cc",28348.697,6.00,2834.870,1,6,0.100,32204.000,0.200,21799.000,0.300,3409.000,0.500,894.000,1.000,625.000,5.000,1.000
"07/01/06","15:13:21","AMMA06",58842.000,"cc",28292.391,6.00,2829.239,1,6,0.100,32069.000,0.200,21820.000,0.300,3288.000,0.500,985.000,1.000,680.000,5.000,0
"07/01/06","15:13:27","AMMA06",58934.000,"cc",28258.588,6.00,2825.859,1,6,0.100,32062.000,0.200,21896.000,0.300,3348.000,0.500,986.000,1.000,642.000,5.000,0
"07/01/06","15:13:33","AMMA06",58689.000,"cc",28335.182,6.00,2833.518,1,6,0.100,31948.000,0.200,21787.000,0.300,3254.000,0.500,1035.000,1.000,665.000,5.000,0
"07/01/06","15:13:39","AMMA06",58850.000,"cc",28372.535,6.00,2837.254,1,6,0.100,31940.000,0.200,21952.000,0.300,3268.000,0.500,1003.000,1.000,687.000,5.000,0
"07/01/06","15:13:45","AMMA06",58891.000,"cc",28312.994,6.00,2831.300,1,6,0.100,32099.000,0.200,21974.000,0.300,3203.000,0.500,992.000,1.000,623.000,5.000,0
"07/01/06","15:13:51","AMMA06",58696.000,"cc",28308.307,6.00,2830.831,1,6,0.100,32159.000,0.200,21652.000,0.300,3275.000,0.500,973.000,1.000,636.000,5.000,1.000
"07/01/06","15:13:57","AMMA06",58639.000,"cc",28354.330,6.00,2835.433,1,6,0.100,31786.000,0.200,21865.000,0.300,3299.000,0.500,1035.000,1.000,654.000,5.000,0
"07/01/06","15:14:03","AMMA06",58453.000,"cc",28303.568,6.00,2830.357,1,6,0.100,32005.000,0.200,21443.000,0.300,3374.000,0.500,965.000,1.000,665.000,5.000,1.000
"07/01/06","15:14:09","AMMA06",58345.000,"cc",28292.457,6.00,2829.246,1,6,0.100,32149.000,0.200,21392.000,0.300,3204.000,0.500,936.000,1.000,664.000,5.000,0